Climatologie pour Saint-Brevin les Pins
Jour • Résumé pour février 23, 2017 Système :  Métrique    Anglais   Mixte
« - 1 jour
+ 1 jour »
Jour Semaine Mois Année Personnalisé
  Maximum : Minimum : Moyenne :
Température sous abri : 12.1 °C 6.9 °C 9.7 °C
Point de rosée : 10.7 °C 5.1 °C 8.1 °C
Humidité : 98 % 75 % 90 %
Vitesse du vent : 24.1 km/h 1.6 km/h 10.4 km/h
Rafale : 37.0 km/h - -
Direction :- - West
Pression : 1016.8 hPa 1009.7 hPa -
Précipitations : 0.3 mm    
Historical Graphs
 
 
Tableau de données pour février 23, 2017
Heure Tempé Pt rosée Pression Vent Vitesse Rafale Humidité Taux pluie (/hr) Soleil
00:00 9.6 °C 8.5 °C 1016.8 hPa WSW 8.0 km/h 16.1 km/h 93 % 0.0 mm 0 W/m2
00:10 9.6 °C 8.5 °C 1016.5 hPa WSW 8.0 km/h 16.1 km/h 93 % 0.0 mm 0 W/m2
00:15 9.6 °C 8.5 °C 1016.5 hPa West 8.0 km/h 12.9 km/h 93 % 0.0 mm 0 W/m2
00:20 9.6 °C 8.6 °C 1016.5 hPa WSW 4.8 km/h 12.9 km/h 94 % 0.0 mm 0 W/m2
00:25 9.5 °C 8.6 °C 1016.5 hPa WSW 4.8 km/h 12.9 km/h 94 % 0.0 mm 0 W/m2
00:30 9.5 °C 8.6 °C 1016.5 hPa WSW 4.8 km/h 12.9 km/h 94 % 0.0 mm 0 W/m2
00:35 9.5 °C 8.6 °C 1016.5 hPa WSW 4.8 km/h 12.9 km/h 94 % 0.0 mm 0 W/m2
00:40 9.5 °C 8.6 °C 1016.5 hPa WSW 6.4 km/h 12.9 km/h 94 % 0.0 mm 0 W/m2
00:45 9.5 °C 8.6 °C 1016.5 hPa WSW 3.2 km/h 11.3 km/h 94 % 0.0 mm 0 W/m2
00:55 9.4 °C 8.5 °C 1016.5 hPa SW 3.2 km/h 12.9 km/h 94 % 0.0 mm 0 W/m2
01:00 9.4 °C 8.5 °C 1016.5 hPa WSW 8.0 km/h 12.9 km/h 94 % 0.0 mm 0 W/m2
01:05 9.4 °C 8.5 °C 1016.5 hPa WSW 3.2 km/h 14.5 km/h 94 % 0.0 mm 0 W/m2
01:10 9.5 °C 8.6 °C 1016.1 hPa WSW 11.3 km/h 14.5 km/h 94 % 0.0 mm 0 W/m2
01:15 9.5 °C 8.6 °C 1016.1 hPa SW 4.8 km/h 12.9 km/h 94 % 0.0 mm 0 W/m2
01:20 9.5 °C 8.6 °C 1016.1 hPa SW 1.6 km/h 11.3 km/h 94 % 0.0 mm 0 W/m2
01:25 9.5 °C 8.4 °C 1016.1 hPa WSW 8.0 km/h 14.5 km/h 93 % 0.0 mm 0 W/m2
01:30 9.6 °C 8.5 °C 1016.1 hPa WSW 1.6 km/h 14.5 km/h 93 % 0.0 mm 0 W/m2
01:35 9.6 °C 8.4 °C 1016.1 hPa West 8.0 km/h 19.3 km/h 92 % 0.0 mm 0 W/m2
01:40 9.7 °C 8.4 °C 1016.1 hPa WSW 8.0 km/h 19.3 km/h 92 % 0.0 mm 0 W/m2
01:45 9.7 °C 8.4 °C 1016.1 hPa West 6.4 km/h 16.1 km/h 92 % 0.0 mm 0 W/m2
01:50 9.7 °C 8.4 °C 1016.1 hPa WNW 8.0 km/h 17.7 km/h 92 % 0.0 mm 0 W/m2
01:55 9.7 °C 8.6 °C 1015.8 hPa WSW 16.1 km/h 17.7 km/h 93 % 0.0 mm 0 W/m2
02:00 9.6 °C 8.5 °C 1015.8 hPa WNW 6.4 km/h 17.7 km/h 93 % 0.0 mm 0 W/m2
02:05 9.6 °C 8.5 °C 1015.8 hPa West 6.4 km/h 17.7 km/h 93 % 0.0 mm 0 W/m2
02:10 9.6 °C 8.5 °C 1015.8 hPa WSW 11.3 km/h 17.7 km/h 93 % 0.0 mm 0 W/m2
02:15 9.6 °C 8.5 °C 1015.8 hPa WSW 9.7 km/h 16.1 km/h 93 % 0.0 mm 0 W/m2
02:20 9.4 °C 8.5 °C 1015.8 hPa WNW 11.3 km/h 17.7 km/h 94 % 0.0 mm 0 W/m2
02:25 9.4 °C 8.5 °C 1015.8 hPa West 3.2 km/h 17.7 km/h 94 % 0.0 mm 0 W/m2
02:30 9.3 °C 8.6 °C 1015.5 hPa West 9.7 km/h 14.5 km/h 95 % 0.0 mm 0 W/m2
02:35 9.3 °C 8.5 °C 1015.5 hPa WSW 11.3 km/h 16.1 km/h 95 % 0.0 mm 0 W/m2
02:40 9.3 °C 8.5 °C 1015.5 hPa West 3.2 km/h 17.7 km/h 95 % 0.0 mm 0 W/m2
02:45 9.3 °C 8.5 °C 1015.5 hPa West 3.2 km/h 17.7 km/h 95 % 0.0 mm 0 W/m2
02:50 9.3 °C 8.5 °C 1015.5 hPa West 11.3 km/h 17.7 km/h 95 % 0.0 mm 0 W/m2
02:55 9.3 °C 8.5 °C 1015.1 hPa West 6.4 km/h 17.7 km/h 95 % 0.0 mm 0 W/m2
03:00 9.3 °C 8.6 °C 1015.1 hPa SW 6.4 km/h 12.9 km/h 95 % 0.0 mm 0 W/m2
03:05 9.3 °C 8.6 °C 1015.1 hPa SW 8.0 km/h 12.9 km/h 95 % 0.0 mm 0 W/m2
03:10 9.3 °C 8.6 °C 1015.1 hPa WSW 4.8 km/h 14.5 km/h 95 % 0.0 mm 0 W/m2
03:15 9.3 °C 8.6 °C 1014.8 hPa WSW 11.3 km/h 14.5 km/h 95 % 0.0 mm 0 W/m2
03:20 9.3 °C 8.6 °C 1014.8 hPa SW 9.7 km/h 12.9 km/h 95 % 0.0 mm 0 W/m2
03:25 9.3 °C 8.6 °C 1014.8 hPa West 3.2 km/h 17.7 km/h 95 % 0.0 mm 0 W/m2
03:30 9.4 °C 8.6 °C 1014.8 hPa West 9.7 km/h 17.7 km/h 95 % 0.0 mm 0 W/m2
03:35 9.4 °C 8.6 °C 1014.4 hPa SW 6.4 km/h 14.5 km/h 95 % 0.0 mm 0 W/m2
03:40 9.4 °C 8.6 °C 1014.4 hPa WSW 8.0 km/h 11.3 km/h 95 % 0.0 mm 0 W/m2
03:45 9.4 °C 8.6 °C 1014.1 hPa WSW 4.8 km/h 16.1 km/h 95 % 0.0 mm 0 W/m2
03:50 9.3 °C 8.6 °C 1014.1 hPa WSW 3.2 km/h 16.1 km/h 95 % 0.0 mm 0 W/m2
03:55 9.3 °C 8.6 °C 1014.1 hPa WSW 9.7 km/h 16.1 km/h 95 % 0.0 mm 0 W/m2
04:00 9.3 °C 8.6 °C 1013.8 hPa West 14.5 km/h 16.1 km/h 95 % 0.0 mm 0 W/m2
04:10 9.3 °C 8.6 °C 1013.8 hPa West 11.3 km/h 16.1 km/h 95 % 0.0 mm 0 W/m2
04:20 9.4 °C 8.5 °C 1013.4 hPa West 17.7 km/h 17.7 km/h 94 % 0.0 mm 0 W/m2
04:25 9.4 °C 8.5 °C 1013.4 hPa WSW 4.8 km/h 19.3 km/h 94 % 0.0 mm 0 W/m2
04:30 9.4 °C 8.5 °C 1013.4 hPa West 4.8 km/h 19.3 km/h 94 % 0.0 mm 0 W/m2
04:35 9.4 °C 8.5 °C 1013.1 hPa WSW 4.8 km/h 19.3 km/h 94 % 0.0 mm 0 W/m2
04:40 9.4 °C 8.5 °C 1013.1 hPa West 8.0 km/h 25.7 km/h 94 % 0.0 mm 0 W/m2
04:45 9.5 °C 8.4 °C 1013.4 hPa West 9.7 km/h 25.7 km/h 93 % 0.0 mm 0 W/m2
04:50 9.6 °C 8.5 °C 1013.1 hPa WSW 17.7 km/h 20.9 km/h 93 % 0.0 mm 0 W/m2
04:55 9.6 °C 8.5 °C 1013.1 hPa SW 11.3 km/h 20.9 km/h 93 % 0.0 mm 0 W/m2
05:00 9.6 °C 8.5 °C 1013.1 hPa SW 4.8 km/h 17.7 km/h 93 % 0.0 mm 0 W/m2
05:05 9.6 °C 8.5 °C 1013.1 hPa NW 3.2 km/h 16.1 km/h 93 % 0.0 mm 0 W/m2
05:10 9.6 °C 8.5 °C 1012.8 hPa West 9.7 km/h 19.3 km/h 93 % 0.0 mm 0 W/m2
05:15 9.6 °C 8.5 °C 1012.8 hPa SW 6.4 km/h 22.5 km/h 93 % 0.0 mm 0 W/m2
05:20 9.6 °C 8.5 °C 1012.8 hPa WSW 16.1 km/h 22.5 km/h 93 % 0.0 mm 0 W/m2
05:25 9.7 °C 8.6 °C 1012.8 hPa West 11.3 km/h 22.5 km/h 93 % 0.0 mm 0 W/m2
05:30 9.7 °C 8.6 °C 1012.8 hPa SW 9.7 km/h 22.5 km/h 93 % 0.0 mm 0 W/m2
05:35 9.7 °C 8.6 °C 1012.8 hPa WSW 11.3 km/h 22.5 km/h 93 % 0.0 mm 0 W/m2
05:40 9.7 °C 8.4 °C 1012.4 hPa West 8.0 km/h 24.1 km/h 92 % 0.0 mm 0 W/m2
05:45 9.7 °C 8.4 °C 1012.4 hPa West 9.7 km/h 24.1 km/h 92 % 0.0 mm 0 W/m2
05:50 9.7 °C 8.4 °C 1012.4 hPa WSW 11.3 km/h 20.9 km/h 92 % 0.0 mm 0 W/m2
05:55 9.7 °C 8.4 °C 1012.4 hPa WSW 9.7 km/h 25.7 km/h 92 % 0.0 mm 0 W/m2
06:00 9.7 °C 8.4 °C 1012.4 hPa West 20.9 km/h 25.7 km/h 92 % 0.0 mm 0 W/m2
06:10 9.8 °C 8.4 °C 1012.4 hPa WSW 6.4 km/h 24.1 km/h 91 % 0.0 mm 0 W/m2
06:15 9.7 °C 8.3 °C 1012.1 hPa SW 9.7 km/h 25.7 km/h 91 % 0.0 mm 0 W/m2
06:20 9.7 °C 8.5 °C 1012.4 hPa WSW 8.0 km/h 25.7 km/h 92 % 0.0 mm 0 W/m2
06:25 9.7 °C 8.5 °C 1012.1 hPa WSW 9.7 km/h 25.7 km/h 92 % 0.0 mm 0 W/m2
06:30 9.7 °C 8.5 °C 1012.1 hPa WSW 9.7 km/h 25.7 km/h 92 % 0.0 mm 0 W/m2
06:35 9.7 °C 8.4 °C 1012.1 hPa WSW 8.0 km/h 20.9 km/h 92 % 0.0 mm 0 W/m2
06:40 9.7 °C 8.4 °C 1012.1 hPa WSW 9.7 km/h 19.3 km/h 92 % 0.0 mm 0 W/m2
06:45 9.7 °C 8.6 °C 1011.7 hPa SW 6.4 km/h 19.3 km/h 93 % 0.0 mm 0 W/m2
06:50 9.7 °C 8.6 °C 1011.7 hPa West 1.6 km/h 19.3 km/h 93 % 0.0 mm 0 W/m2
06:55 9.6 °C 8.5 °C 1011.7 hPa WSW 1.6 km/h 20.9 km/h 93 % 0.0 mm 0 W/m2
07:00 9.7 °C 8.6 °C 1011.7 hPa WSW 8.0 km/h 24.1 km/h 93 % 0.0 mm 0 W/m2
07:05 9.7 °C 8.4 °C 1011.7 hPa West 6.4 km/h 24.1 km/h 92 % 0.0 mm 0 W/m2
07:10 9.7 °C 8.5 °C 1011.7 hPa West 6.4 km/h 20.9 km/h 92 % 0.0 mm 0 W/m2
07:15 9.7 °C 8.5 °C 1011.7 hPa WSW 11.3 km/h 24.1 km/h 92 % 0.0 mm 0 W/m2
07:20 9.7 °C 8.5 °C 1011.7 hPa SW 8.0 km/h 24.1 km/h 92 % 0.0 mm 0 W/m2
07:25 9.8 °C 8.5 °C 1012.1 hPa WSW 19.3 km/h 24.1 km/h 92 % 0.0 mm 0 W/m2
07:30 9.8 °C 8.5 °C 1012.1 hPa WSW 8.0 km/h 24.1 km/h 92 % 0.0 mm 0 W/m2
07:40 9.8 °C 8.5 °C 1012.1 hPa West 9.7 km/h 24.1 km/h 92 % 0.0 mm 0 W/m2
07:45 9.8 °C 8.5 °C 1012.1 hPa WSW 8.0 km/h 24.1 km/h 92 % 0.0 mm 0 W/m2
07:50 9.8 °C 8.5 °C 1011.7 hPa West 12.9 km/h 22.5 km/h 92 % 0.0 mm 0 W/m2
07:55 9.8 °C 8.5 °C 1012.1 hPa West 9.7 km/h 22.5 km/h 92 % 0.0 mm 0 W/m2
08:00 9.8 °C 8.4 °C 1012.1 hPa West 6.4 km/h 20.9 km/h 91 % 0.0 mm 0 W/m2
08:05 9.8 °C 8.4 °C 1012.1 hPa WSW 3.2 km/h 22.5 km/h 91 % 0.0 mm 0 W/m2
08:10 9.8 °C 8.4 °C 1012.1 hPa West 9.7 km/h 22.5 km/h 91 % 0.0 mm 0 W/m2
08:15 9.8 °C 8.5 °C 1012.1 hPa WSW 17.7 km/h 20.9 km/h 92 % 0.0 mm 0 W/m2
08:20 9.8 °C 8.5 °C 1012.1 hPa WSW 8.0 km/h 19.3 km/h 92 % 0.0 mm 0 W/m2
08:25 9.8 °C 8.5 °C 1011.7 hPa WNW 8.0 km/h 22.5 km/h 92 % 0.0 mm 0 W/m2
08:30 9.8 °C 8.5 °C 1011.7 hPa WSW 17.7 km/h 22.5 km/h 92 % 0.0 mm 5 W/m2
08:40 9.7 °C 8.5 °C 1011.7 hPa WSW 14.5 km/h 19.3 km/h 92 % 0.0 mm 7 W/m2
08:45 9.8 °C 8.5 °C 1011.7 hPa WSW 14.5 km/h 20.9 km/h 92 % 0.0 mm 9 W/m2
08:50 9.8 °C 8.5 °C 1011.4 hPa WSW 12.9 km/h 22.5 km/h 92 % 0.0 mm 12 W/m2
08:55 9.8 °C 8.6 °C 1011.4 hPa WSW 4.8 km/h 29.0 km/h 92 % 0.0 mm 12 W/m2
09:00 9.9 °C 8.5 °C 1011.4 hPa SW 20.9 km/h 29.0 km/h 91 % 0.0 mm 11 W/m2
09:10 9.8 °C 8.4 °C 1011.4 hPa SW 6.4 km/h 22.5 km/h 91 % 0.0 mm 19 W/m2
09:15 9.8 °C 8.6 °C 1011.4 hPa WSW 8.0 km/h 20.9 km/h 92 % 0.0 mm 14 W/m2
09:20 9.9 °C 8.6 °C 1011.4 hPa WSW 6.4 km/h 22.5 km/h 92 % 0.0 mm 12 W/m2
09:25 9.9 °C 8.5 °C 1011.4 hPa WSW 9.7 km/h 22.5 km/h 91 % 0.0 mm 26 W/m2
09:30 9.9 °C 8.5 °C 1011.4 hPa SW 9.7 km/h 22.5 km/h 91 % 0.0 mm 53 W/m2
09:35 10.0 °C 8.6 °C 1011.4 hPa SW 11.3 km/h 22.5 km/h 91 % 0.0 mm 67 W/m2
09:40 10.1 °C 8.8 °C 1011.4 hPa West 14.5 km/h 20.9 km/h 92 % 0.0 mm 62 W/m2
09:45 10.1 °C 8.8 °C 1011.4 hPa WSW 8.0 km/h 20.9 km/h 92 % 0.0 mm 79 W/m2
09:50 10.1 °C 8.9 °C 1011.4 hPa WSW 6.4 km/h 20.9 km/h 92 % 0.0 mm 69 W/m2
09:55 10.2 °C 8.9 °C 1011.4 hPa West 11.3 km/h 17.7 km/h 92 % 0.0 mm 72 W/m2
10:00 10.1 °C 8.9 °C 1011.7 hPa WNW 8.0 km/h 29.0 km/h 92 % 0.0 mm 63 W/m2
10:05 10.1 °C 8.7 °C 1011.7 hPa West 6.4 km/h 29.0 km/h 91 % 0.0 mm 69 W/m2
10:10 10.2 °C 8.8 °C 1011.7 hPa WSW 6.4 km/h 22.5 km/h 91 % 0.0 mm 69 W/m2
10:15 10.2 °C 8.8 °C 1011.4 hPa WNW 22.5 km/h 22.5 km/h 91 % 0.0 mm 72 W/m2
10:20 10.3 °C 8.9 °C 1011.4 hPa WSW 14.5 km/h 22.5 km/h 91 % 0.0 mm 95 W/m2
10:25 10.3 °C 8.9 °C 1011.4 hPa WSW 16.1 km/h 25.7 km/h 91 % 0.0 mm 93 W/m2
10:30 10.4 °C 8.8 °C 1011.4 hPa WSW 4.8 km/h 25.7 km/h 90 % 0.0 mm 98 W/m2
10:40 10.5 °C 8.9 °C 1011.1 hPa West 12.9 km/h 20.9 km/h 90 % 0.0 mm 153 W/m2
10:45 10.6 °C 9.0 °C 1011.1 hPa SSW 4.8 km/h 24.1 km/h 90 % 0.0 mm 88 W/m2
10:50 10.5 °C 8.9 °C 1011.1 hPa West 16.1 km/h 27.4 km/h 90 % 0.0 mm 70 W/m2
10:55 10.5 °C 8.9 °C 1011.1 hPa WSW 16.1 km/h 27.4 km/h 90 % 0.0 mm 84 W/m2
11:00 10.5 °C 8.9 °C 1011.1 hPa SW 16.1 km/h 22.5 km/h 90 % 0.0 mm 83 W/m2
11:05 10.5 °C 8.9 °C 1011.1 hPa West 9.7 km/h 27.4 km/h 90 % 0.0 mm 137 W/m2
11:10 10.6 °C 9.2 °C 1011.1 hPa West 17.7 km/h 27.4 km/h 91 % 0.0 mm 97 W/m2
11:15 10.6 °C 9.0 °C 1011.1 hPa West 11.3 km/h 25.7 km/h 90 % 0.0 mm 90 W/m2
11:25 10.4 °C 9.0 °C 1011.1 hPa WSW 9.7 km/h 30.6 km/h 91 % 0.0 mm 102 W/m2
11:30 10.5 °C 9.1 °C 1011.1 hPa WSW 19.3 km/h 30.6 km/h 91 % 0.0 mm 79 W/m2
11:35 10.6 °C 9.3 °C 1011.1 hPa WSW 22.5 km/h 29.0 km/h 92 % 0.0 mm 91 W/m2
11:40 10.6 °C 9.1 °C 1011.1 hPa West 12.9 km/h 29.0 km/h 91 % 0.0 mm 91 W/m2
11:45 10.6 °C 9.1 °C 1011.1 hPa WSW 17.7 km/h 32.2 km/h 91 % 0.0 mm 107 W/m2
11:50 10.6 °C 9.2 °C 1011.1 hPa West 16.1 km/h 32.2 km/h 91 % 0.0 mm 137 W/m2
11:55 10.7 °C 9.4 °C 1011.1 hPa WSW 12.9 km/h 32.2 km/h 92 % 0.0 mm 118 W/m2
12:00 10.7 °C 9.3 °C 1011.1 hPa SW 20.9 km/h 32.2 km/h 91 % 0.0 mm 132 W/m2
12:10 10.8 °C 9.5 °C 1011.1 hPa WSW 11.3 km/h 32.2 km/h 92 % 0.0 mm 137 W/m2
12:15 10.8 °C 9.5 °C 1011.1 hPa West 8.0 km/h 32.2 km/h 92 % 0.0 mm 121 W/m2
12:20 10.8 °C 9.4 °C 1011.1 hPa SW 20.9 km/h 32.2 km/h 91 % 0.0 mm 118 W/m2
12:25 10.8 °C 9.5 °C 1011.1 hPa WSW 11.3 km/h 30.6 km/h 92 % 0.0 mm 127 W/m2
12:30 10.8 °C 9.5 °C 1010.7 hPa SW 9.7 km/h 27.4 km/h 92 % 0.0 mm 142 W/m2
12:40 10.7 °C 9.6 °C 1010.7 hPa SW 20.9 km/h 33.8 km/h 93 % 0.0 mm 135 W/m2
12:45 10.6 °C 9.7 °C 1010.7 hPa West 16.1 km/h 33.8 km/h 94 % 0.0 mm 114 W/m2
12:55 10.4 °C 9.6 °C 1010.7 hPa WNW 9.7 km/h 32.2 km/h 95 % 0.0 mm 105 W/m2
13:00 10.3 °C 9.6 °C 1010.7 hPa West 17.7 km/h 29.0 km/h 95 % 0.0 mm 95 W/m2
13:05 10.3 °C 9.7 °C 1010.7 hPa WSW 19.3 km/h 27.4 km/h 96 % 0.0 mm 135 W/m2
13:10 10.3 °C 9.7 °C 1010.4 hPa WNW 17.7 km/h 25.7 km/h 96 % 0.0 mm 171 W/m2
13:15 10.4 °C 9.8 °C 1010.4 hPa SW 14.5 km/h 25.7 km/h 96 % 0.0 mm 185 W/m2
13:20 10.5 °C 9.9 °C 1010.4 hPa West 20.9 km/h 30.6 km/h 96 % 0.0 mm 172 W/m2
13:25 10.5 °C 9.9 °C 1010.4 hPa WSW 22.5 km/h 30.6 km/h 96 % 0.0 mm 144 W/m2
13:30 10.6 °C 10.1 °C 1010.4 hPa WSW 17.7 km/h 27.4 km/h 97 % 0.0 mm 200 W/m2
13:40 10.5 °C 10.0 °C 1010.0 hPa WSW 14.5 km/h 24.1 km/h 97 % 0.0 mm 111 W/m2
13:45 10.4 °C 10.0 °C 1010.0 hPa WSW 9.7 km/h 35.4 km/h 97 % 0.0 mm 118 W/m2
13:50 10.4 °C 10.0 °C 1010.0 hPa SW 19.3 km/h 35.4 km/h 97 % 0.0 mm 91 W/m2
13:55 10.5 °C 10.0 °C 1010.0 hPa WSW 16.1 km/h 29.0 km/h 97 % 0.0 mm 306 W/m2
14:00 11.0 °C 10.7 °C 1010.0 hPa WSW 17.7 km/h 29.0 km/h 98 % 0.0 mm 388 W/m2
14:05 11.2 °C 10.7 °C 1010.0 hPa West 14.5 km/h 29.0 km/h 97 % 0.0 mm 376 W/m2
14:10 11.2 °C 10.7 °C 1010.0 hPa West 11.3 km/h 30.6 km/h 97 % 0.3 mm 269 W/m2
14:15 11.2 °C 10.7 °C 1010.0 hPa WNW 17.7 km/h 30.6 km/h 97 % 0.3 mm 241 W/m2
14:25 11.2 °C 10.6 °C 1010.0 hPa SW 9.7 km/h 20.9 km/h 96 % 0.3 mm 197 W/m2
14:30 11.1 °C 10.3 °C 1010.0 hPa WNW 14.5 km/h 20.9 km/h 95 % 0.3 mm 255 W/m2
14:35 11.2 °C 10.2 °C 1010.0 hPa West 11.3 km/h 25.7 km/h 94 % 0.3 mm 290 W/m2
14:40 11.3 °C 10.2 °C 1010.0 hPa West 4.8 km/h 25.7 km/h 93 % 0.3 mm 302 W/m2
14:45 11.6 °C 10.1 °C 1010.0 hPa WSW 11.3 km/h 22.5 km/h 91 % 0.3 mm 315 W/m2
14:50 11.8 °C 10.2 °C 1010.0 hPa West 12.9 km/h 22.5 km/h 90 % 0.3 mm 272 W/m2
14:55 12.1 °C 10.5 °C 1010.0 hPa West 9.7 km/h 22.5 km/h 90 % 0.3 mm 385 W/m2
15:00 12.1 °C 10.0 °C 1009.7 hPa NW 8.0 km/h 22.5 km/h 87 % 0.3 mm 271 W/m2
15:10 11.9 °C 9.7 °C 1009.7 hPa West 9.7 km/h 27.4 km/h 86 % 0.0 mm 265 W/m2
15:15 11.9 °C 9.8 °C 1009.7 hPa NW 14.5 km/h 27.4 km/h 87 % 0.0 mm 241 W/m2
15:20 11.9 °C 9.8 °C 1009.7 hPa NW 11.3 km/h 24.1 km/h 87 % 0.0 mm 378 W/m2
15:25 12.0 °C 9.6 °C 1009.7 hPa West 16.1 km/h 29.0 km/h 85 % 0.0 mm 380 W/m2
15:30 12.1 °C 9.7 °C 1009.7 hPa WSW 11.3 km/h 29.0 km/h 85 % 0.0 mm 353 W/m2
15:40 11.9 °C 9.1 °C 1009.7 hPa West 9.7 km/h 32.2 km/h 83 % 0.0 mm 295 W/m2
15:45 11.8 °C 9.2 °C 1009.7 hPa West 14.5 km/h 32.2 km/h 84 % 0.0 mm 258 W/m2
15:55 11.8 °C 9.2 °C 1009.7 hPa WNW 17.7 km/h 22.5 km/h 84 % 0.0 mm 260 W/m2
16:00 11.9 °C 8.9 °C 1009.7 hPa West 12.9 km/h 30.6 km/h 82 % 0.0 mm 220 W/m2
16:05 11.8 °C 8.9 °C 1009.7 hPa West 17.7 km/h 32.2 km/h 82 % 0.0 mm 253 W/m2
16:10 11.8 °C 8.5 °C 1010.0 hPa NW 24.1 km/h 32.2 km/h 80 % 0.0 mm 251 W/m2
16:15 11.8 °C 8.7 °C 1010.0 hPa NW 19.3 km/h 30.6 km/h 81 % 0.0 mm 244 W/m2
16:20 11.8 °C 8.7 °C 1010.0 hPa WNW 8.0 km/h 30.6 km/h 81 % 0.0 mm 190 W/m2
16:25 11.7 °C 8.5 °C 1009.7 hPa NNW 12.9 km/h 25.7 km/h 81 % 0.0 mm 199 W/m2
16:30 11.7 °C 8.5 °C 1010.0 hPa WNW 14.5 km/h 29.0 km/h 81 % 0.0 mm 195 W/m2
16:40 11.6 °C 8.1 °C 1010.0 hPa NW 12.9 km/h 30.6 km/h 79 % 0.0 mm 202 W/m2
16:45 11.6 °C 7.9 °C 1010.0 hPa NW 19.3 km/h 27.4 km/h 78 % 0.0 mm 174 W/m2
16:50 11.6 °C 7.7 °C 1010.0 hPa WNW 12.9 km/h 29.0 km/h 77 % 0.0 mm 163 W/m2
16:55 11.6 °C 7.3 °C 1010.4 hPa NW 20.9 km/h 37.0 km/h 75 % 0.0 mm 181 W/m2
17:00 11.6 °C 7.5 °C 1010.4 hPa WNW 11.3 km/h 37.0 km/h 76 % 0.0 mm 162 W/m2
17:05 11.5 °C 7.4 °C 1010.4 hPa WNW 17.7 km/h 32.2 km/h 76 % 0.0 mm 130 W/m2
17:10 11.4 °C 7.7 °C 1010.4 hPa West 14.5 km/h 32.2 km/h 78 % 0.0 mm 105 W/m2
17:15 11.3 °C 7.6 °C 1010.4 hPa NW 16.1 km/h 30.6 km/h 78 % 0.0 mm 93 W/m2
17:25 11.1 °C 7.4 °C 1010.7 hPa WNW 14.5 km/h 22.5 km/h 78 % 0.0 mm 88 W/m2
17:30 10.9 °C 7.3 °C 1010.4 hPa WNW 12.9 km/h 30.6 km/h 78 % 0.0 mm 86 W/m2
17:40 10.8 °C 7.3 °C 1010.7 hPa NW 8.0 km/h 27.4 km/h 79 % 0.0 mm 74 W/m2
17:45 10.7 °C 7.0 °C 1010.7 hPa West 11.3 km/h 25.7 km/h 78 % 0.0 mm 63 W/m2
17:50 10.6 °C 6.9 °C 1011.1 hPa WNW 11.3 km/h 25.7 km/h 78 % 0.0 mm 53 W/m2
17:55 10.4 °C 6.8 °C 1011.1 hPa WNW 9.7 km/h 27.4 km/h 78 % 0.0 mm 47 W/m2
18:00 10.4 °C 6.7 °C 1011.1 hPa West 9.7 km/h 30.6 km/h 78 % 0.0 mm 44 W/m2
18:10 10.2 °C 6.7 °C 1011.1 hPa WNW 24.1 km/h 25.7 km/h 79 % 0.0 mm 37 W/m2
18:15 10.1 °C 6.6 °C 1011.4 hPa WNW 16.1 km/h 24.1 km/h 79 % 0.0 mm 30 W/m2
18:20 10.1 °C 6.6 °C 1011.4 hPa NW 12.9 km/h 22.5 km/h 79 % 0.0 mm 25 W/m2
18:25 10.0 °C 6.7 °C 1011.4 hPa WNW 17.7 km/h 24.1 km/h 80 % 0.0 mm 21 W/m2
18:30 9.9 °C 6.7 °C 1011.4 hPa West 9.7 km/h 24.1 km/h 80 % 0.0 mm 16 W/m2
18:35 9.9 °C 6.8 °C 1011.4 hPa NW 20.9 km/h 27.4 km/h 81 % 0.0 mm 11 W/m2
18:40 9.8 °C 6.7 °C 1011.7 hPa NW 9.7 km/h 27.4 km/h 81 % 0.0 mm 5 W/m2
18:45 9.7 °C 6.7 °C 1011.7 hPa NW 14.5 km/h 24.1 km/h 82 % 0.0 mm 0 W/m2
18:55 9.6 °C 6.8 °C 1011.7 hPa NNW 12.9 km/h 22.5 km/h 83 % 0.0 mm 0 W/m2
19:00 9.5 °C 6.8 °C 1012.1 hPa WNW 16.1 km/h 27.4 km/h 83 % 0.0 mm 0 W/m2
19:05 9.4 °C 6.7 °C 1012.1 hPa NW 12.9 km/h 27.4 km/h 83 % 0.0 mm 0 W/m2
19:10 9.3 °C 6.8 °C 1012.1 hPa WNW 8.0 km/h 24.1 km/h 84 % 0.0 mm 0 W/m2
19:15 9.3 °C 6.7 °C 1012.4 hPa NW 8.0 km/h 24.1 km/h 84 % 0.0 mm 0 W/m2
19:20 9.1 °C 6.7 °C 1012.4 hPa WNW 6.4 km/h 17.7 km/h 85 % 0.0 mm 0 W/m2
19:25 9.1 °C 6.7 °C 1012.4 hPa WNW 8.0 km/h 19.3 km/h 85 % 0.0 mm 0 W/m2
19:30 9.1 °C 6.7 °C 1012.4 hPa NW 19.3 km/h 24.1 km/h 85 % 0.0 mm 0 W/m2
19:40 9.1 °C 6.7 °C 1012.8 hPa WNW 6.4 km/h 17.7 km/h 85 % 0.0 mm 0 W/m2
19:45 9.1 °C 6.5 °C 1012.8 hPa NW 6.4 km/h 17.7 km/h 84 % 0.0 mm 0 W/m2
19:50 9.0 °C 6.6 °C 1012.8 hPa WNW 9.7 km/h 17.7 km/h 85 % 0.0 mm 0 W/m2
19:55 8.9 °C 6.5 °C 1012.8 hPa WNW 12.9 km/h 14.5 km/h 85 % 0.0 mm 0 W/m2
20:00 8.8 °C 6.4 °C 1012.8 hPa WNW 4.8 km/h 12.9 km/h 85 % 0.0 mm 0 W/m2
20:05 8.6 °C 6.3 °C 1013.1 hPa West 9.7 km/h 12.9 km/h 86 % 0.0 mm 0 W/m2
20:10 8.4 °C 6.2 °C 1012.8 hPa WNW 6.4 km/h 14.5 km/h 86 % 0.0 mm 0 W/m2
20:15 8.4 °C 6.2 °C 1013.1 hPa WNW 3.2 km/h 14.5 km/h 86 % 0.0 mm 0 W/m2
20:25 8.2 °C 6.1 °C 1013.1 hPa WNW 8.0 km/h 14.5 km/h 87 % 0.0 mm 0 W/m2
20:30 8.1 °C 6.0 °C 1013.1 hPa NW 3.2 km/h 14.5 km/h 87 % 0.0 mm 0 W/m2
20:35 8.1 °C 6.0 °C 1013.4 hPa WNW 4.8 km/h 11.3 km/h 87 % 0.0 mm 0 W/m2
20:40 8.1 °C 6.0 °C 1013.4 hPa WNW 8.0 km/h 14.5 km/h 87 % 0.0 mm 0 W/m2
20:45 8.1 °C 5.9 °C 1013.4 hPa WNW 3.2 km/h 14.5 km/h 86 % 0.0 mm 0 W/m2
20:50 7.8 °C 5.6 °C 1013.4 hPa NW 6.4 km/h 11.3 km/h 86 % 0.0 mm 0 W/m2
20:55 7.7 °C 5.6 °C 1013.4 hPa WNW 4.8 km/h 11.3 km/h 87 % 0.0 mm 0 W/m2
21:00 7.6 °C 5.5 °C 1013.8 hPa NW 6.4 km/h 11.3 km/h 87 % 0.0 mm 0 W/m2
21:10 7.4 °C 5.4 °C 1013.8 hPa WNW 4.8 km/h 11.3 km/h 87 % 0.0 mm 0 W/m2
21:15 7.3 °C 5.3 °C 1013.8 hPa WNW 4.8 km/h 11.3 km/h 87 % 0.0 mm 0 W/m2
21:20 7.3 °C 5.3 °C 1014.1 hPa NW 6.4 km/h 12.9 km/h 87 % 0.0 mm 0 W/m2
21:25 7.2 °C 5.4 °C 1014.1 hPa WNW 8.0 km/h 12.9 km/h 88 % 0.0 mm 0 W/m2
21:30 7.4 °C 5.5 °C 1014.1 hPa NW 3.2 km/h 14.5 km/h 88 % 0.0 mm 0 W/m2
21:35 7.6 °C 5.5 °C 1014.1 hPa WNW 6.4 km/h 14.5 km/h 87 % 0.0 mm 0 W/m2
21:40 7.6 °C 5.5 °C 1014.1 hPa WNW 4.8 km/h 14.5 km/h 87 % 0.0 mm 0 W/m2
21:45 7.6 °C 5.4 °C 1014.1 hPa NW 11.3 km/h 11.3 km/h 86 % 0.0 mm 0 W/m2
21:55 7.6 °C 5.4 °C 1014.4 hPa NW 8.0 km/h 16.1 km/h 86 % 0.0 mm 0 W/m2
22:00 7.5 °C 5.3 °C 1014.4 hPa NW 8.0 km/h 16.1 km/h 86 % 0.0 mm 0 W/m2
22:10 7.4 °C 5.3 °C 1014.4 hPa NW 4.8 km/h 14.5 km/h 86 % 0.0 mm 0 W/m2
22:15 7.4 °C 5.2 °C 1014.4 hPa NW 4.8 km/h 14.5 km/h 86 % 0.0 mm 0 W/m2
22:20 7.3 °C 5.1 °C 1014.4 hPa NNW 6.4 km/h 12.9 km/h 86 % 0.0 mm 0 W/m2
22:25 7.2 °C 5.1 °C 1014.4 hPa NNW 6.4 km/h 12.9 km/h 87 % 0.0 mm 0 W/m2
22:30 7.1 °C 5.2 °C 1014.8 hPa WNW 3.2 km/h 11.3 km/h 88 % 0.0 mm 0 W/m2
22:40 6.9 °C 5.2 °C 1014.8 hPa WNW 6.4 km/h 11.3 km/h 89 % 0.0 mm 0 W/m2
22:45 6.9 °C 5.4 °C 1015.1 hPa WNW 4.8 km/h 12.9 km/h 90 % 0.0 mm 0 W/m2
22:50 7.1 °C 5.5 °C 1015.1 hPa WNW 12.9 km/h 12.9 km/h 90 % 0.0 mm 0 W/m2
22:55 7.3 °C 5.7 °C 1015.5 hPa NW 6.4 km/h 14.5 km/h 90 % 0.0 mm 0 W/m2
23:00 7.4 °C 5.7 °C 1015.5 hPa NNW 8.0 km/h 17.7 km/h 89 % 0.0 mm 0 W/m2
23:05 7.4 °C 5.7 °C 1015.5 hPa NW 9.7 km/h 17.7 km/h 89 % 0.0 mm 0 W/m2
23:10 7.5 °C 5.6 °C 1015.5 hPa NW 9.7 km/h 16.1 km/h 88 % 0.0 mm 0 W/m2
23:15 7.5 °C 5.5 °C 1015.5 hPa NW 6.4 km/h 16.1 km/h 87 % 0.0 mm 0 W/m2
23:25 7.8 °C 5.6 °C 1015.5 hPa NNW 12.9 km/h 17.7 km/h 86 % 0.0 mm 0 W/m2
23:30 7.8 °C 5.5 °C 1015.5 hPa NW 8.0 km/h 17.7 km/h 85 % 0.0 mm 0 W/m2
23:35 7.9 °C 5.5 °C 1015.5 hPa NW 8.0 km/h 16.1 km/h 85 % 0.0 mm 0 W/m2
23:40 7.8 °C 5.5 °C 1015.5 hPa WNW 3.2 km/h 16.1 km/h 85 % 0.0 mm 0 W/m2
23:45 7.7 °C 5.3 °C 1015.5 hPa WNW 14.5 km/h 14.5 km/h 85 % 0.0 mm 0 W/m2
23:50 7.6 °C 5.4 °C 1015.5 hPa WNW 12.9 km/h 16.1 km/h 86 % 0.0 mm 0 W/m2
23:55 7.5 °C 5.3 °C 1015.5 hPa WNW 8.0 km/h 16.1 km/h 86 % 0.0 mm 0 W/m2
Avec l'autorisation de Weather Underground - 1.5 mb